Flag for Angola Weather past 2 weeks in Lubango, Angola

Now
82 °F

Pleasantly warm.


Feels Like: 80 °F
Forecast: 56 / 78 °F
Wind: 10 mph from East

Location: Ondangwa

Current Time: Sep 20, 2014 at 9:57:21 AM

Latest Report: Sep 20, 2014 at 9:00 AM


Visibility: N/A

Pressure: 30.09 "Hg

Humidity: 19%

Dew point: 36 °F

Location of LubangoLocation

Historic Weather in Lubango — Graph

°F

Lubango temperature yesterday

Maximum temperature yesterday: 95 °F (at 2:00 PM)
Minimum temperature yesterday: 63 °F (at 6:00 AM)
Average temperature yesterday: 77 °F

Past Weeks' High & Low Weather Summary

 TemperatureHumidityPressure
High100 °F (Sep 15, 2:00 PM)69% (Sep 14, 6:00 AM)30.21 "Hg (Sep 14, 6:00 AM)
Low55 °F (Sep 6, 6:00 AM)7% (Sep 10, 3:00 PM)29.83 "Hg (Sep 17, 3:00 PM)
Average78 °F21%30.02 "Hg
* Reported Sep 5 8:00 AM — Sep 20 8:00 AM, Lubango, Weather by CustomWeather, © 2014

Note: Actual official high and low records may vary slightly from our data, if they occured in-between our weather recording intervals... More about our weather records

Advertising

Lubango weather history for previous 24 hours

 ConditionsComfort  
Time TempWeatherWind HumidityBarometerVisibility
8:00 AM
Sep 20
75 °FSunny.5 mph25%30.09 "Hg10 mi
7:00 AM68 °FSunny.No wind26%30.07 "Hg10 mi
6:00 AM63 °FClear.3 mph27%30.04 "Hg10 mi
5:00 AM64 °FMild.3 mph24%30.04 "HgN/A
4:00 AM66 °FMild.5 mph22%30.01 "HgN/A
3:00 AM70 °FMild.9 mph21%29.98 "HgN/A
2:00 AM70 °FMild.6 mph20%30.01 "HgN/A
1:00 AM72 °FMild.8 mph19%30.01 "HgN/A
12:00 AM72 °FMild.3 mph17%30.04 "HgN/A
11:00 PM
Sep 19
73 °FMild.8 mph15%30.04 "HgN/A
10:00 PM79 °FPleasantly warm.9 mph12%30.01 "HgN/A
9:00 PM81 °FPleasantly warm.5 mph13%29.98 "HgN/A
8:00 PM81 °FPleasantly warm.2 mph14%29.98 "HgN/A
7:00 PM82 °FPleasantly warm.2 mph13%29.95 "HgN/A
6:00 PM88 °FPleasantly warm.2 mph11%29.92 "HgN/A
5:00 PM93 °FExtremely hot.1 mph10%29.92 "HgN/A
4:00 PM95 °FExtremely hot.3 mph10%29.92 "HgN/A
3:00 PM95 °FExtremely hot.3 mph11%29.92 "HgN/A
2:00 PM95 °FExtremely hot.3 mph11%29.95 "HgN/A
1:00 PM91 °FHot.3 mph13%29.98 "HgN/A
12:00 PM88 °FPleasantly warm.5 mph13%30.01 "HgN/A
11:00 AM82 °FPleasantly warm.2 mph16%30.04 "HgN/A
10:00 AM77 °FPleasantly warm.2 mph18%30.07 "HgN/A
9:00 AM72 °FMild.5 mph23%30.07 "HgN/A
Weather by CustomWeather, © 2014

See weather overviewHow to use our weather pages